カタログに戻る

STARLINK-32121

運用中通信VLEO
NORAD 60264·PAYLOAD·🇺🇸 United States

打ち上げ Jul 27, 2024 から Cape Canaveral Space Force Station

Loading…

次のパス (今後24時間)

TLE

最新Source: CelesTrak SupGP

元期: Sep 14, 2026, 22:22 UTC

1 60264C 24131K   26257.93243056  .00037974  00000+0  12211-2 0  2578
2 60264  53.1590 252.4307 0001389  90.5387  11.0876 15.31684802    11

AllMySatでSTARLINK-32121をリアルタイム追跡

Download on the App Store